Location: Karlsruhe
(49.0131°N, 8.3874°E)
Time: 16:55:13
(UTC+01:00)

ISS - Pass Details

Date: 28 March 2017
Orbit: 399 x 409 km, 51.6° (Epoch: 25 March)

Event Time Altitude Azimuth Distance (km) Brightness Sun altitude
Rises 20:56:10 0° 210° (SSW) 2,301 0.2 -11.2°
Reaches altitude 10° 20:58:30 10° 194° (SSW) 1,448 -1.1 -11.5°
Maximum altitude 21:01:05 22° 142° (SE) 941 -2.5 -11.9°
Enters shadow 21:01:46 20° 123° (ESE) 986 -2.5 -12.0°
